Theta_e
325 333 334 334 334 336 335 336 334 336 335 333 330 331 333 334 332 332 334 336 336 335 332 331 327 325 326 324 320 318 315 314
309 324 336 335 335 335 335 334 335 334 328 328 328 328 331 331 333 334 335 337 336 335 330 325 324 324 324 323 320 317 314 315
307 316 330 335 333 334 335 334 333 332 330 328 331 331 331 332 334 334 336 337 336 334 329 326 325 321 322 320 318 316 315 315
306 313 324 335 333 333 333 333 332 331 331 332 330 331 331 330 331 334 337 337 336 333 329 327 326 326 319 317 317 317 314 314
306 308 320 330 333 335 334 332 331 331 332 328 327 326 325 327 329 332 335 335 336 333 329 326 324 322 318 317 316 317 319 314
305 308 316 325 333 334 334 331 330 331 330 330 326 325 326 329 330 331 334 332 333 330 328 328 323 320 322 317 316 314 318 318
306 309 315 321 328 334 333 331 329 330 330 331 327 326 327 327 329 330 332 332 331 331 326 324 324 322 319 318 317 315 321 319
310 310 311 318 325 329 332 332 327 328 328 330 328 326 324 327 330 331 331 334 330 330 327 323 322 323 321 322 314 316 319 320
310 311 313 315 320 328 330 330 329 327 328 329 328 329 327 326 330 332 332 334 333 333 329 328 324 326 325 322 315 315 320 322
307 309 312 314 317 322 329 329 329 328 328 330 328 329 329 328 329 333 335 337 334 332 332 330 326 327 326 323 317 319 323 323
305 307 310 313 316 319 326 329 330 329 328 331 329 330 330 332 333 332 335 336 334 333 330 328 326 327 327 324 322 319 322 323
303 305 308 311 314 316 321 327 328 332 329 330 331 331 332 334 334 334 334 337 336 331 330 328 327 328 327 326 324 321 321 322
300 302 305 309 314 318 317 324 329 329 334 329 330 333 334 334 334 334 335 335 336 332 330 329 329 330 328 326 325 323 322 321
297 299 298 303 310 319 318 321 326 330 332 330 329 331 332 333 335 336 334 335 333 333 331 328 329 331 328 327 326 325 323 323
291 292 295 299 306 318 319 321 325 328 329 331 328 328 331 335 335 335 334 333 330 333 331 329 331 331 330 328 326 324 323 323
288 291 293 297 300 308 322 324 326 327 327 326 326 328 334 334 332 334 332 330 329 331 331 329 331 332 331 328 325 325 325 324
287 289 292 294 296 300 309 323 326 328 327 325 326 326 328 330 331 330 329 327 327 328 328 329 329 329 309 306 319 326 325 323
286 288 291 293 295 297 301 310 326 327 325 326 325 325 325 326 327 326 323 321 323 323 326 329 329 330 301 302 302 326 326 325
286 289 290 292 294 295 302 308 318 327 326 326 324 324 322 325 322 321 319 320 318 320 325 327 329 328 299 299 299 327 327 327
Wind_Speed
9 13 16 17 18 17 17 15 16 16 10 9 9 8 10 10 9 11 15 12 14 12 10 11 10 9 10 10 11 9 9 9
6 10 15 16 16 18 18 18 18 13 10 10 9 9 11 10 8 14 14 14 14 14 9 11 11 9 10 11 11 13 10 9
10 10 14 14 16 18 20 19 18 15 10 8 9 10 11 10 11 11 15 14 15 14 14 12 14 9 13 12 11 10 10 11
13 12 13 16 17 18 19 19 19 18 18 10 7 9 9 11 12 11 14 14 14 15 16 13 13 11 11 12 11 13 11 11
12 13 15 16 19 19 19 18 17 16 19 14 14 11 13 12 10 12 10 14 14 14 16 16 13 10 13 12 10 10 9 12
12 13 13 15 18 17 16 18 18 18 19 17 12 11 8 11 12 15 15 12 13 11 14 16 14 10 15 14 13 10 10 10
5 6 10 12 15 17 16 17 17 18 20 22 17 16 12 11 15 14 13 11 11 14 15 14 15 13 14 15 14 14 11 11
5 5 6 10 14 15 14 18 16 19 21 23 23 22 22 19 17 15 16 13 11 15 17 15 13 15 14 16 13 14 12 12
9 8 8 7 11 15 14 17 19 19 21 23 21 25 14 15 17 13 13 13 14 16 17 18 17 17 17 17 11 11 15 13
13 13 11 10 10 14 18 18 20 21 21 20 23 20 18 16 19 18 14 15 14 17 18 18 17 17 17 18 12 17 16 14
14 14 14 13 12 12 17 20 21 19 23 22 20 21 19 17 15 15 19 17 19 17 18 17 18 17 17 19 15 14 13 13
15 15 16 17 16 16 16 20 22 23 21 21 20 20 20 18 17 17 16 17 19 18 19 18 18 18 18 19 18 17 18 17
16 16 17 19 20 18 19 19 21 22 22 20 21 21 20 19 18 18 17 18 19 18 19 19 19 19 20 20 20 19 20 19
17 17 17 18 20 19 19 20 21 21 22 19 19 21 21 20 20 19 20 20 18 18 19 18 19 20 20 20 20 19 18 19
17 17 17 17 19 21 17 19 19 20 18 20 18 19 21 21 20 20 20 19 17 20 18 18 19 20 21 21 20 17 19 18
18 17 17 17 17 19 13 16 17 18 17 19 19 17 19 19 19 19 17 16 16 20 18 18 19 19 15 20 19 18 18 17
19 19 19 18 17 16 15 11 14 17 17 14 14 15 16 17 18 17 17 16 17 17 18 18 21 14 17 18 19 17 19 18
19 19 17 16 15 16 15 14 12 17 15 18 15 14 15 17 18 17 16 16 16 18 19 20 20 19 18 20 19 15 16 17
17 16 16 15 15 15 14 11 12 17 17 19 14 14 15 18 15 15 14 14 16 17 19 20 18 16 21 21 21 20 18 19
Wind_Direction
214 213 189 184 185 183 175 172 173 171 169 157 162 167 210 191 170 179 183 177 175 174 170 152 169 167 161 156 151 150 145 141
228 219 189 189 190 182 182 174 172 165 159 164 166 177 200 198 188 175 188 178 173 176 163 156 173 165 165 162 155 155 148 143
221 220 201 194 189 183 185 179 172 169 163 166 176 190 195 199 184 185 195 183 173 176 169 173 176 153 163 169 167 162 156 166
223 214 208 193 188 188 188 182 180 173 168 158 185 192 202 204 201 181 195 189 179 174 177 178 179 173 170 173 173 176 168 179
232 218 211 197 202 194 190 188 182 179 170 171 183 181 201 205 208 193 191 192 185 177 176 176 176 166 173 175 180 184 183 185
214 221 214 207 195 199 190 188 181 176 175 179 178 178 211 204 206 210 183 187 188 170 179 179 180 177 180 177 178 191 197 194
256 253 239 221 206 193 190 187 184 183 178 181 180 188 202 232 206 203 198 185 185 180 182 182 183 180 178 180 184 194 206 207
319 302 261 228 220 198 187 190 188 183 183 184 187 199 190 213 233 211 195 184 190 189 179 183 186 185 185 186 184 191 198 205
327 317 309 285 250 216 192 196 191 188 190 190 196 207 205 195 211 216 208 200 194 189 182 183 187 188 190 192 183 193 199 210
323 317 304 289 266 247 213 198 200 194 194 197 204 208 212 206 208 208 215 202 196 190 188 185 189 190 188 191 188 193 202 205
324 315 310 297 276 258 238 223 204 198 200 204 207 213 214 220 212 214 210 203 200 191 186 187 189 190 188 193 193 193 195 201
322 318 313 302 285 261 241 225 221 204 203 208 212 212 210 215 218 216 213 209 202 196 188 185 190 189 190 194 196 189 196 203
322 322 317 310 294 253 233 222 215 219 206 208 212 208 210 213 212 211 208 211 206 194 195 188 194 191 192 196 197 194 197 203
328 330 327 316 303 272 228 220 215 214 217 208 211 207 205 209 210 209 206 211 207 199 198 192 197 196 193 197 200 196 194 202
333 330 323 316 308 295 228 220 214 211 215 210 209 208 203 209 212 212 216 214 206 211 196 197 199 199 198 198 199 194 198 204
337 331 322 318 318 318 243 215 214 208 209 214 212 212 206 205 210 215 212 210 209 210 202 198 202 204 199 196 197 194 199 202
334 330 323 323 323 324 315 277 214 207 206 212 210 210 211 209 210 209 208 205 210 212 210 199 204 202 184 192 191 192 197 202
334 329 324 326 327 326 319 305 272 206 208 205 209 206 204 206 207 207 204 202 207 215 211 203 205 203 172 184 190 191 194 203
334 324 330 331 334 330 327 333 308 217 207 210 205 202 201 207 208 206 204 205 204 212 213 204 203 203 171 183 188 200 202 206